West Columbia, SC

2:01 AM EST on February 14, 2016 (GMT -0500)
Columbia Metro

Weather History for KCAE - May, 2013

Change the Weather History Date:

Monday, May 20, 2013

  Actual Average Record
Temperature  
Mean Temperature 77 °F 73 °F  
Max Temperature 86 °F 85 °F 98 °F (1964)
Min Temperature 67 °F 61 °F 40 °F (1894)
Degree Days  
Heating Degree Days 0 0  
Month to date heating degree days 18 18  
Since 1 July heating degree days 2259 2549  
Cooling Degree Days 12 8  
Month to date cooling degree days 105 119  
Year to date cooling degree days 233 214  
Growing Degree Days 26 (Base 50)    
Moisture  
Dew Point 68 °F    
Average Humidity 73    
Maximum Humidity 97    
Minimum Humidity 48    
Precipitation  
Precipitation T in 0.09 in 2.54 in (1980)
Month to date precipitation 3.62 1.82  
Year to date precipitation 18.62 15.36  
Sea Level Pressure  
Sea Level Pressure 30.07 in    
Wind  
Wind Speed 2 mph (SSE)    
Max Wind Speed 13 mph    
Max Gust Speed 16 mph    
Visibility 8 miles    
Events Rain    
T = Trace of Precipitation, MM = Missing Value Source: NWS Daily Summary

Daily Weather History Graph

Daily Weather History Graph

Search for Another Location

Airport or City:

Trip Planner

Search our weather history database for the weather conditions in past years. The results will help you decide how hot, cold, wet, or windy it might be!

Date:

Astronomy

May. 20, 2013 Rise Set
Actual Time 6:19 AM EDT 8:22 PM EDT
Civil Twilight 5:51 AM EDT 8:50 PM EDT
Nautical Twilight 5:17 AM EDT 9:24 PM EDT
Astronomical Twilight 4:41 AM EDT 10:01 PM EDT
Moon 3:41 PM EDT (5/20) 2:59 AM EDT (5/20)
Length of Visible Light 14h 59m
Length of Day
14h 03m
Waxing Gibbous, 75% of the Moon is Illuminated
May 20
Waxing Gibbous
May 25
Full
May 31
Last Quarter
Jun 8
New
Jun 16
First Quarter

Hourly Weather History & Observations

Time (EDT) Temp. Heat Index Dew Point Humidity Pressure Visibility Wind Dir Wind Speed Gust Speed Precip Events Conditions
12:56 AM 69.1 °F - 68.0 °F 96% 30.08 in 7.0 mi ESE 3.5 mph - N/A   Overcast
1:21 AM 69.8 °F - 68.0 °F 94% 30.08 in 7.0 mi ESE 3.5 mph - N/A   Overcast
1:42 AM 69.8 °F - 68.0 °F 94% 30.08 in 7.0 mi Calm Calm - N/A   Overcast
1:51 AM 69.8 °F - 68.0 °F 94% 30.07 in 8.0 mi Calm Calm - N/A   Overcast
1:56 AM 69.1 °F - 68.0 °F 96% 30.06 in 8.0 mi Calm Calm - N/A   Overcast
2:40 AM 69.8 °F - 68.0 °F 94% 30.06 in 7.0 mi Calm Calm - N/A   Scattered Clouds
2:56 AM 69.1 °F - 66.9 °F 93% 30.05 in 7.0 mi Calm Calm - N/A   Partly Cloudy
3:56 AM 69.1 °F - 66.9 °F 93% 30.05 in 7.0 mi Calm Calm - N/A   Scattered Clouds
4:36 AM 68.0 °F - 66.2 °F 94% 30.06 in 6.0 mi Calm Calm - N/A   Scattered Clouds
4:45 AM 66.2 °F - 66.2 °F 100% 30.06 in 5.0 mi Calm Calm - N/A   Mostly Cloudy
4:56 AM 68.0 °F - 66.9 °F 96% 30.06 in 5.0 mi Calm Calm - N/A   Overcast
5:41 AM 69.8 °F - 68.0 °F 94% 30.06 in 7.0 mi Calm Calm - N/A   Overcast
5:56 AM 69.1 °F - 66.9 °F 93% 30.06 in 7.0 mi Calm Calm - N/A   Overcast
6:56 AM 69.1 °F - 68.0 °F 96% 30.08 in 6.0 mi Calm Calm - N/A   Overcast
7:56 AM 70.0 °F - 68.0 °F 93% 30.09 in 4.0 mi ESE 3.5 mph - N/A   Overcast
8:02 AM 69.8 °F - 69.8 °F 100% 30.09 in 2.5 mi East 3.5 mph - N/A   Overcast
8:23 AM 69.8 °F - 69.8 °F 100% 30.10 in 5.0 mi Calm Calm - N/A   Overcast
8:42 AM 71.6 °F - 69.8 °F 94% 30.11 in 6.0 mi Calm Calm - N/A   Overcast
8:56 AM 72.0 °F - 69.1 °F 91% 30.10 in 6.0 mi Calm Calm - N/A   Overcast
9:03 AM 71.6 °F - 69.8 °F 94% 30.11 in 6.0 mi Calm Calm - N/A   Overcast
9:56 AM 73.9 °F - 69.1 °F 85% 30.10 in 8.0 mi Calm Calm - N/A   Overcast
10:56 AM 75.9 °F - 68.0 °F 76% 30.10 in 9.0 mi SW 4.6 mph - N/A   Mostly Cloudy
11:35 AM 77.0 °F - 66.2 °F 69% 30.10 in 9.0 mi Calm Calm - N/A   Overcast
11:56 AM 77.0 °F - 66.9 °F 71% 30.10 in 9.0 mi WSW 3.5 mph - N/A   Mostly Cloudy
12:56 PM 78.1 °F - 66.9 °F 68% 30.09 in 10.0 mi South 3.5 mph - N/A   Mostly Cloudy
1:56 PM 78.1 °F - 66.9 °F 68% 30.09 in 10.0 mi Calm Calm - 0.00 in Rain Light Rain
2:24 PM 78.8 °F - 68.0 °F 69% 30.08 in 10.0 mi NNW 3.5 mph - 0.00 in   Overcast
2:33 PM 80.6 °F 83.2 °F 68.0 °F 65% 30.07 in 10.0 mi Calm Calm - 0.00 in   Scattered Clouds
2:56 PM 80.1 °F 82.7 °F 68.0 °F 67% 30.05 in 10.0 mi Calm Calm - 0.00 in   Mostly Cloudy
3:56 PM 81.0 °F 83.3 °F 66.9 °F 62% 30.04 in 10.0 mi Calm Calm - N/A   Mostly Cloudy
4:56 PM 84.9 °F 87.6 °F 66.9 °F 55% 30.02 in 10.0 mi Calm Calm - N/A   Scattered Clouds
5:56 PM 84.9 °F 86.1 °F 64.0 °F 49% 30.02 in 10.0 mi Calm Calm - N/A   Mostly Cloudy
6:56 PM 84.0 °F 84.5 °F 62.1 °F 47% 30.01 in 10.0 mi Calm Calm - N/A   Mostly Cloudy
7:56 PM 81.0 °F 83.8 °F 68.0 °F 65% 30.01 in 10.0 mi SE 6.9 mph - N/A   Mostly Cloudy
8:56 PM 75.9 °F - 69.1 °F 79% 30.02 in 10.0 mi SSE 8.1 mph - N/A   Mostly Cloudy
9:56 PM 75.0 °F - 68.0 °F 79% 30.04 in 10.0 mi South 4.6 mph - N/A   Scattered Clouds
10:56 PM 73.0 °F - 66.0 °F 79% 30.05 in 10.0 mi Calm Calm - N/A   Scattered Clouds
11:56 PM 72.0 °F - 64.9 °F 78% 30.04 in 10.0 mi SE 4.6 mph - N/A   Scattered Clouds